Regional Weather Roundup
Issued by NWS

Home | Current Version | Previous Version | Graphics & Text | Print | Product List | Glossary Off
Versions: 1 2 3 4 5 6 7 8 9 10 11 12 13 14 15 16 17 18 19 20 21 22 23 24 25 26 27 28 29 30 31 32 33 34 35 36 37 38 39 40 41 42 43 44 45 46 47 48 49 50

841
ASUS43 KMKX 291621
RWRWI

WISCONSIN REGIONAL WEATHER ROUNDUP
NATIONAL WEATHER SERVICE MILWAUKEE/SULLIVAN WI
1100 AM CDT MON MAY 29 2017

NOTE: "FAIR" INDICATES FEW OR NO CLOUDS BELOW 12,000 FEET WITH NO
SIGNIFICANT WEATHER AND/OR OBSTRUCTIONS TO VISIBILITY.

WIZ001-002-006>008-014>016-023>028-291700-
NORTHWEST WISCONSIN

CITY           SKY/WX    TMP DP  RH WIND       PRES   REMARKS
SUPERIOR ARPT  NOT AVBL
ASHLAND        CLOUDY    59  50  72 W17G23    29.66S
HAYWARD        CLOUDY    56  47  71 VRB7      29.71S
SIREN          CLOUDY    55  48  75 W8        29.75S
CUMBERLAND     CLOUDY    52  46  82 W14G20    29.75S
RICE LAKE      CLOUDY    56  48  74 W17       29.76S
CHETEK         CLOUDY    55  48  79 NW7G20    29.76R
LADYSMITH      CLOUDY    57  50  79 W12       29.74R
EAU CLAIRE     CLOUDY    57  48  72 W13       29.76R
MENOMONIE      CLOUDY    59  48  66 W10G20    29.78S
NEW RICHMOND   CLOUDY    57  47  69 W15       29.78S
OSCEOLA        CLOUDY    58  49  71 W13G20    29.81S
$$

WIZ003>005-009-010-017-018-291700-
NORTH CENTRAL WISCONSIN

CITY           SKY/WX    TMP DP  RH WIND       PRES   REMARKS
MANITOWISH WTR CLOUDY    55  54  97 W13G22    29.66F
ARBOR VITAE    CLOUDY    55  52  89 W10       29.67S
WOODRUFF       CLOUDY    55  52  89 W10       29.67S
RHINELANDER    CLOUDY    57  50  77 W14       29.69R
EAGLE RIVER    CLOUDY    52  49  89 W14       29.67S
LAND O LAKES   CLOUDY    53  49  87 SW8       29.67R
PHILLIPS       CLOUDY    53  50  90 SW8G16    29.69S
TOMAHAWK       CLOUDY    53  49  85 SW3       29.70S
MEDFORD        CLOUDY    53  51  92 W14       29.73R
MERRILL        CLOUDY    55  50  82 W13       29.71S
$$

WIZ029-030-035-036-043>047-291700-
CENTRAL WISCONSIN

CITY           SKY/WX    TMP DP  RH WIND       PRES   REMARKS
WAUSAU         LGT RAIN  56  50  80 W12       29.71S
MOSINEE        LGT RAIN  55  52  88 W12       29.74R
MARSHFIELD     CLOUDY    58  51  78 W14G25    29.74S
STEVENS POINT  DRIZZLE   51  51  99 W9G17     29.76R
WAUPACA        PTSUNNY   62  51  66 W16G26    29.74S
WAUTOMA        CLOUDY    61  48  62 W22         N/A
WISC RAPIDS    CLOUDY    58  51  78 W13       29.77R
CAMP DOUGLAS   PTSUNNY   61  49  63 W17       29.78R
$$

WIZ011>013-019>022-031-037>040-048>050-291700-
NORTHEAST WISCONSIN

CITY           SKY/WX    TMP DP  RH WIND       PRES   REMARKS
ANTIGO         CLOUDY    53  49  87 W13G18    29.71R
SHAWANO        CLOUDY    64  50  59 W9G18     29.69S
OCONTO         PTSUNNY   67  47  49 W12G23    29.66S
STURGEON BAY   SUNNY     64  49  57 W22       29.67S
GREEN BAY      MOSUNNY   64  53  67 W20G26    29.69S
MANITOWOC      MOSUNNY   64  47  53 W18G28    29.71R
APPLETON       PTSUNNY   63  46  55 W15G25    29.71R
CLINTONVILLE   CLOUDY    63  46  55 W20G26    29.71R
OSHKOSH        MOSUNNY   64  48  56 W16G26    29.72R
$$

WIZ032>034-041-042-053>061-291700-
SOUTHWEST WISCONSIN

CITY           SKY/WX    TMP DP  RH WIND       PRES   REMARKS
LA CROSSE      CLOUDY    62  49  62 W15       29.81R
SPARTA         CLOUDY    58  48  69 W9        29.81R
VIROQUA        CLOUDY    58  47  67 N8        29.82R
BOSCOBEL       PTSUNNY   65  47  52 W13G22    29.83R
PRAIRIE DU CHI PTSUNNY   65  44  47 W15G25    29.84R
PLATTEVILLE    MOSUNNY   65  49  56 W22       29.84S
$$

WIZ056-057-062-063-064-067-068-291700-
SOUTH CENTRAL WISCONSIN

CITY           SKY/WX    TMP DP  RH WIND       PRES   REMARKS
REEDSBURG      CLOUDY    60  46  61 W16G24    29.79R
BARABOO/DELLS  PTSUNNY   60  45  57 W13G22    29.79R
LONE ROCK      MOSUNNY   66  45  46 W21G29    29.81R
MINERAL POINT  MOSUNNY   64  46  52 W15G26    29.82S
MADISON        PTSUNNY   64  47  53 W12G22    29.78R
MIDDLETON      MOSUNNY   66  49  55 W14G26    29.80S
WATERTOWN      SUNNY     65  46  50 W13G28    29.77S
MONROE         MOSUNNY   64  45  48 W26       29.82R
JANESVILLE     MOSUNNY   68  46  45 W16G24    29.79S
$$

WIZ051-052-058>065-066-070>072-291700-
SOUTHEAST WISCONSIN

CITY           SKY/WX    TMP DP  RH WIND       PRES   REMARKS
MILWAUKEE      MOSUNNY   70  43  37 W21G32    29.76R
WAUKESHA       SUNNY     64  45  48 W20G32    29.78R
MILWAUKEE/TIMM SUNNY     66  39  37 W22G33    29.76R
RACINE         SUNNY     71  44  37 W20G26    29.78R
KENOSHA        SUNNY     71  46  40 W23G35    29.77S
FOND DU LAC    MOSUNNY   64  46  52 W23G30    29.73R
SHEBOYGAN      PTSUNNY   66  50  56 W25G33    29.72R
WEST BEND      SUNNY     64  45  48 W24       29.74R
JUNEAU         MOSUNNY   63  48  59 W13G24    29.77S
$$

LSZ147-162-291700-
LAKE SUPERIOR

STATION/POSITION TIME  TEMP    WIND        PRES    WAVE
                       AIR SEA DIR/SP/G            HT/PER
                 (UTC) (F)     (DEG/KT/KT) (MB)    (FT/S)
W MID LAKE BUOY  1550   42 37  250/ 14/ 14 1002.5R   2/ 4
DEVILS ISLAND    1600   47     240/ 21/ 24 1003.9R
SAXON HARBOR     1540   58     280/  5/  9 1004.1R
$$

LMZ867-665-643>646-291700-
LAKE MICHIGAN

STATION/POSITION TIME  TEMP    WIND        PRES    WAVE
                       AIR SEA DIR/SP/G            HT/PER
                 (UTC) (F)     (DEG/KT/KT) (MB)    (FT/S)
CHAMBERS ISLAND  1540   62     210/  7/ 10 1003.7S
N MID LAKE BUOY  1550   45 41  200/  8/ 10 1005.1R   1/ 4
NORTHPORT PIER   1540   63     240/  6/ 13 1004.1S
KEWAUNEE LAKESHO 1600   64     240/  9/ 19 1004.9
SHEBOYGAN LAKESH 1600   64     260/ 19/ 24 1006.0R
PORT WASHINGTON  1530   68     260/ 19/ 30 1007.1S
ATWATER BUOY     1509   63     240/ 16/ 19 1007.4R
MILWAUKEE LAKESH 1600   67     250/ 17/ 21   N/A
S MID LAKE BUOY  1550   52 47  230/ 10/ 10 1008.6R   1
KENOSHA   LAKESH 1600   70     260/ 19/ 30 1008.1
$$

TC  - TEMPERATURE IN CELSIUS
VSB - VISIBILITY IN STATUTE MILES
WCI - WIND CHILL INDEX
HX  - HEAT INDEX





USA.gov is the U.S. government's official web portal to all federal, state and local government web resources and services.